Красноармейский

Россия / Чукотский автономный округ     69°32′30″N   171°59′30″E
темп.,
°C
ветер,
м/с
пор.,
м/с
влажн.,
%
обл.,
%
осадки,
мм/ч
давл.,
гПа
погр.,
м
22 октября, пт
пт2200:00−12с4791100 0.4 1002287
03:00−13с3691100 0.0 1000214
06:00−14ссз1194100 0.1 100124
09:00−14сз1196100 0.3 100091
12:00−15зсз1197100 0.6 100010
15:00−15з1197100 0.1 100011
18:00−16з119887 0.3 100110
21:00−16зюз119897 0.1 100212
23 октября, сб
сб2300:00−16юз1197100 0.4 100332
03:00−16юз119898 0.3 100413
06:00−16ююз119898 0.5 100518
09:00−17ююз119882 0.2 100710
12:00−16юз119790 0.3 100825
15:00−16юз119885 0.1 100810
18:00−18юз009991 0.2 10109
21:00−18ссз009887 0.1 10119
24 октября, вс
вс2400:00−18ссз009993 0.1 10129
03:00−18ссз0098100 0.1 101310
06:00−17ссз0098100 0.1 101410
09:00−16сз1197100 0.1 101415
12:00−14зсз1195100 0.4 101485
15:00−14зсз0196100 0.4 101490
18:00−15сз1197100 0.8 101412
21:00−15с1197100 0.3 101410
25 октября, пн
пн2500:00−15ссв1197100 0.4 101410
03:00−16ссв1197100 0.1 101310
06:00−16ссв119786 0.3 10139
09:00−17св119890 0.1 10129
12:00−18ссв009874 0.1 10129
15:00−18св119975 0.0 10119
18:00−20ссв1110077 0.1 10119
21:00−21ссв1110072 0.0 10129
26 октября, вт
вт2600:00−21ссв2210076 0.1 10119
03:00−20ссв229977 0.0 101010
06:00−18ссв229874 0.1 101011
09:00−19ссз119874 0.1 101111
12:00−16зсз119691 0.1 101052
15:00−17з119891 0.1 101120
18:00−19з119988 0.2 10129
21:00−20з11100100 0.0 101310